Location: Cincinnati Observatory Center
(39.1389°N, 84.4225°W)
Time: 05:49:16
(UTC-04:00)

Amateur Radio Satellites - All Passes

Search period start: 27 May 2015 05:19
Search period end: 28 May 2015 05:19
Location: Cincinnati Observatory Center, 39.1389°N, 84.4225°W

Satellite Date Start Highest point End Downlink Frequencies (MHz)
Time Altitude Azimuth
VERMONT LUNAR 27 May 05:24:14 05:27:26 66° 2° (N) 05:30:37 437.305
MOZHAYETS 4 27 May 05:38:23 05:42:58 73° 259° (W) 05:47:32
ISS 27 May 05:39:19 05:41:40 18° 22° (NNE) 05:44:04 145.825
PHONESAT 2.4 27 May 05:52:54 05:56:22 71° 354° (N) 05:59:50 2401.200-2431.200
AO-7 27 May 06:07:36 06:16:01 85° 288° (WNW) 06:24:24 29.400- 29.500
AIST 2 27 May 06:25:52 06:27:42 12° 251° (WSW) 06:29:18 435.215
HORYU 2 27 May 06:31:54 06:35:10 20° 293° (WNW) 06:38:17 437.375
Cosmos 2491 27 May 06:32:09 06:39:45 32° 69° (ENE) 06:47:30 435.465 / 435.565
CUTE-I 27 May 06:46:06 06:49:02 15° 89° (E) 06:52:14 437.470
STRAND 1 27 May 07:00:55 07:05:13 30° 69° (ENE) 07:09:39 437.568
JAS-2 27 May 07:01:24 07:04:43 17° 296° (WNW) 07:07:52 435.910
VERMONT LUNAR 27 May 07:01:29 07:04:38 59° 200° (SSW) 07:07:47 437.305
PRISM 27 May 07:02:21 07:05:51 29° 71° (ENE) 07:09:26 437.425
Cubesat XI-IV 27 May 07:05:43 07:09:58 24° 93° (E) 07:14:20 437.490
ISS 27 May 07:15:09 07:18:25 73° 221° (SW) 07:21:40 145.825
CUBESAT XI-V 27 May 07:17:18 07:21:53 84° 257° (WSW) 07:26:32 437.345
M-CUBED/EXP-1 PRIME 27 May 07:20:53 07:24:40 33° 68° (ENE) 07:28:13 437.505
YUBILEINY 27 May 07:23:02 07:30:03 29° 85° (E) 07:37:18 435.215
AUBIESAT-1 27 May 07:28:54 07:32:42 35° 68° (ENE) 07:36:16 437.475
PHONESAT 2.4 27 May 07:31:07 07:34:36 86° 4° (N) 07:38:04 2401.200-2431.200
AO-7 27 May 08:02:10 08:07:47 19° 307° (NW) 08:13:03 29.400- 29.500
CUTE-I 27 May 08:24:19 08:29:38 63° 287° (WNW) 08:34:56 437.470
Cosmos 2491 27 May 08:28:32 08:37:04 54° 269° (W) 08:45:27 435.465 / 435.565
RS-15 27 May 08:33:24 08:41:56 29° 105° (ESE) 08:51:00 29.354- 29.394
PRISM 27 May 08:38:14 08:41:21 20° 266° (W) 08:44:23 437.425
VERMONT LUNAR 27 May 08:39:46 08:41:27 13° 213° (SSW) 08:43:03 437.305
STRAND 1 27 May 08:39:53 08:44:23 31° 264° (W) 08:48:52 437.568
Cubesat XI-IV 27 May 08:45:13 08:50:14 41° 290° (WNW) 08:55:13 437.490
BRITE-PL 27 May 08:51:43 08:56:21 27° 92° (E) 09:00:55 437.365/2234.400
GOMX 1 27 May 08:54:16 08:57:31 17° 88° (E) 09:00:54 467.674
M-CUBED/EXP-1 PRIME 27 May 08:56:25 08:59:33 19° 260° (W) 09:02:25 437.505
AIST 1 27 May 08:58:53 09:03:16 73° 264° (W) 09:07:39
AUBIESAT-1 27 May 09:04:36 09:07:33 18° 261° (W) 09:10:13 437.475
PHONESAT 2.4 27 May 09:09:28 09:12:32 29° 207° (SSW) 09:15:35 2401.200-2431.200
YUBILEINY 27 May 09:17:49 09:26:26 58° 283° (WNW) 09:35:00 435.215
AAUSAT CUBESAT 2 27 May 09:36:21 09:37:48 12° 89° (E) 09:39:30 437.432
DOVE 4 27 May 09:52:50 09:57:37 40° 96° (E) 10:02:10 437.250
HO-68 27 May 10:16:17 10:23:24 66° 102° (ESE) 10:30:30 435.675
CANX-2 27 May 10:19:14 10:23:28 82° 102° (ESE) 10:27:41 2200.000
ANTELSAT 27 May 10:19:56 10:22:56 18° 67° (ENE) 10:26:06 437.575/2403.000
CUBEBUG 2 27 May 10:20:19 10:23:03 17° 90° (E) 10:25:54 437.445
Cosmos 2504 27 May 10:21:59 10:29:37 42° 90° (E) 10:36:54 435.465 / 435.565
CUTE 1.7 + AOD 2 27 May 10:22:45 10:26:59 81° 100° (E) 10:31:11 437.475
BRITE-PL 27 May 10:29:43 10:34:59 40° 290° (WNW) 10:39:58 437.365/2234.400
GOMX 1 27 May 10:30:51 10:36:08 56° 287° (WNW) 10:41:06 467.674
Oscar 11 27 May 10:32:02 10:35:33 25° 94° (E) 10:39:07 145.826/435.025
RS-15 27 May 10:42:34 10:53:26 72° 305° (NW) 11:04:38 29.354- 29.394
SEEDS 27 May 10:45:00 10:49:09 68° 284° (WNW) 10:53:17 437.485
PCSat 27 May 10:46:40 10:52:00 55° 58° (ENE) 10:57:19 145.827
TIGRISAT 27 May 10:51:14 10:55:29 35° 71° (ENE) 10:59:44 435.000
BUGSAT 1 27 May 10:53:36 10:53:51 10° 64° (ENE) 10:54:22 437.445
COMPASS 1 27 May 10:57:49 11:01:55 59° 285° (WNW) 11:05:59 437.405
UWE-3 27 May 11:06:00 11:10:10 42° 98° (E) 11:14:13 435.000/436.395/437.385
CINEMA 3 27 May 11:06:04 11:10:49 73° 284° (WNW) 11:15:17 145.822/145.860
AAUSAT CUBESAT 2 27 May 11:09:46 11:13:47 50° 286° (WNW) 11:17:47 437.432
QB50P1 27 May 11:10:38 11:14:07 25° 69° (ENE) 11:17:40 145.935-145.965
UNISAT 6 27 May 11:11:23 11:16:00 60° 75° (ENE) 11:20:36 437.425
POLYITAN 1 27 May 11:12:41 11:16:16 27° 70° (ENE) 11:19:56 437.675
FUNcube-1 27 May 11:15:16 11:19:21 41° 98° (E) 11:23:20 145.935
AISAT 27 May 11:19:44 11:20:37 11° 88° (E) 11:21:49 437.250
DOVE 4 27 May 11:31:08 11:35:06 23° 293° (WNW) 11:38:48 437.250
SO-50 27 May 11:31:12 11:34:06 16° 40° (NE) 11:37:08 436.795
DELFI C3 27 May 11:34:51 11:38:53 82° 284° (WNW) 11:42:54 145.870
NANOSAT C BR1 27 May 11:41:04 11:45:13 54° 74° (ENE) 11:49:26 145.865
HUMSAT D 27 May 11:47:22 11:51:20 43° 98° (E) 11:55:15 437.325/437.525
QB50P2 27 May 11:49:14 11:53:29 71° 76° (ENE) 11:57:47 145.880/145.840
ANTELSAT 27 May 11:54:52 11:59:25 47° 262° (W) 12:03:54 437.575/2403.000
ZACube-1 27 May 11:55:50 12:00:08 64° 285° (WNW) 12:04:18 437.345
CUBEBUG 2 27 May 11:55:50 12:00:01 40° 288° (WNW) 12:04:02 437.445
UKube-1 27 May 11:56:52 12:01:08 53° 101° (E) 12:05:23 .
POPSAT HIP 1 27 May 12:01:23 12:05:40 86° 257° (WSW) 12:10:00 437.405
DUCHIFAT 1 27 May 12:03:03 12:07:19 85° 261° (W) 12:11:38 145.980
HO-68 27 May 12:05:05 12:10:38 24° 299° (WNW) 12:15:58 435.675
DX 1 27 May 12:06:02 12:10:27 74° 102° (ESE) 12:14:49 434.975-435.025
Oscar 11 27 May 12:08:04 12:11:42 26° 290° (WNW) 12:15:16 145.826/435.025
Cosmos 2504 27 May 12:15:25 12:23:05 38° 286° (WNW) 12:30:12 435.465 / 435.565
CUBEBUG 1 27 May 12:19:13 12:22:53 25° 95° (E) 12:26:36 437.445
CUSAT 1 27 May 12:19:36 12:23:35 16° 80° (E) 12:28:17 437.405
VELOX 1 27 May 12:21:31 12:25:55 53° 100° (E) 12:30:17 145.980
BUGSAT 1 27 May 12:24:40 12:28:47 69° 259° (WSW) 12:33:00 437.445
ESTCUBE 1 27 May 12:25:53 12:30:01 35° 97° (E) 12:34:11 437.505/2401.250
TIGRISAT 27 May 12:28:36 12:32:19 22° 267° (W) 12:35:53 435.000
PCSat 27 May 12:31:11 12:35:02 19° 253° (WSW) 12:38:41 145.827
50 SAT 27 May 12:38:46 12:42:39 79° 283° (WNW) 12:46:29 437.505
UWE-3 27 May 12:43:35 12:46:22 16° 294° (WNW) 12:48:57 435.000/436.395/437.385
QB50P1 27 May 12:46:15 12:49:54 26° 265° (W) 12:53:31 145.935-145.965
POLYITAN 1 27 May 12:48:33 12:52:08 25° 265° (W) 12:55:40 437.675
UNISAT 6 27 May 12:50:56 12:53:13 13° 271° (W) 12:55:13 437.425
FUNcube-1 27 May 12:52:35 12:55:22 16° 293° (WNW) 12:57:56 145.935
AISAT 27 May 12:53:16 12:57:45 66° 285° (WNW) 13:02:10 437.250
SPROUT 27 May 12:57:12 13:00:05 18° 92° (E) 13:03:05 437.525
RS-15 27 May 12:59:39 13:08:23 25° 334° (NNW) 13:17:08 29.354- 29.394
SO-50 27 May 13:10:23 13:15:22 85° 239° (WSW) 13:20:15 436.795
TISAT 1 27 May 13:18:41 13:21:58 22° 94° (E) 13:25:19 437.305
NANOSAT C BR1 27 May 13:19:41 13:21:28 12° 271° (W) 13:23:01 145.865
HUMSAT D 27 May 13:24:19 13:26:45 15° 293° (WNW) 13:29:01 437.325/437.525
DANDE 27 May 13:30:04 13:36:35 43° 89° (E) 13:44:22 436.750
UKube-1 27 May 13:34:31 13:36:52 14° 295° (WNW) 13:39:01 .
JUGNU 27 May 13:38:00 13:39:13 11° 183° (S) 13:40:24 437.505
DX 1 27 May 13:45:08 13:46:09 11° 297° (WNW) 13:46:55 434.975-435.025
GONETS M04 27 May 13:46:21 13:54:49 55° 91° (E) 14:03:23
Oscar 19 27 May 13:54:10 13:59:10 51° 72° (ENE) 14:04:13 437.125/150
CUBEBUG 1 27 May 13:55:23 13:59:13 28° 290° (WNW) 14:02:58 437.445
CUSAT 1 27 May 13:57:46 14:05:03 84° 98° (E) 14:13:26 437.405
VELOX 1 27 May 13:59:30 14:02:04 15° 295° (WNW) 14:04:27 145.980
ESTCUBE 1 27 May 14:03:13 14:06:42 22° 292° (WNW) 14:10:05 437.505/2401.250
ITAMSAT 1 27 May 14:10:33 14:14:22 22° 66° (ENE) 14:18:20 435.822/435.867
ITUPSAT 1 27 May 14:22:31 14:25:37 18° 92° (E) 14:28:53 437.325
BEESAT 27 May 14:29:34 14:33:07 21° 93° (E) 14:36:48 436.000
SPROUT 27 May 14:32:19 14:36:20 37° 288° (WNW) 14:40:18 437.525
SWISSCUBE 27 May 14:37:45 14:41:50 28° 95° (E) 14:45:58 437.505
Gurwin Techsat 1B 27 May 14:49:37 14:54:39 47° 72° (ENE) 14:59:45 435.225
Cosmos 2499 27 May 14:51:30 14:57:32 25° 86° (E) 15:03:31 435.465 / 435.565
TISAT 1 27 May 14:54:02 14:57:47 29° 289° (WNW) 15:01:27 437.305
SRMSAT 27 May 14:55:46 14:57:13 11° 181° (S) 14:58:40 437.500
DANDE 27 May 15:13:06 15:19:54 40° 290° (WNW) 15:27:41 436.750
AO-7 27 May 15:14:52 15:21:13 26° 57° (ENE) 15:27:49 29.400- 29.500
RS-15 27 May 15:19:10 15:26:23 18° 9° (N) 15:33:58 29.354- 29.394
JAS-2 27 May 15:26:31 15:31:26 24° 67° (ENE) 15:36:08 435.910
Oscar 19 27 May 15:35:16 15:38:53 18° 269° (W) 15:42:18 437.125/150
CUSAT 1 27 May 15:43:12 15:48:58 21° 299° (WNW) 15:54:47 437.405
GONETS M04 27 May 15:44:22 15:52:08 32° 291° (WNW) 15:59:43
ITAMSAT 1 27 May 15:48:40 15:53:37 44° 261° (W) 15:58:33 435.822/435.867
HORYU 2 27 May 15:51:56 15:55:49 30° 70° (ENE) 15:59:47 437.375
ITUPSAT 1 27 May 15:59:12 16:03:47 46° 288° (WNW) 16:08:21 437.325
KKS-1 27 May 16:01:50 16:05:54 34° 97° (E) 16:09:59 437.445
BEESAT 27 May 16:06:42 16:11:07 38° 289° (WNW) 16:15:29 436.000
O/OREOS (USA 219) 27 May 16:08:35 16:12:53 46° 107° (ESE) 16:17:13 437.305
SWISSCUBE 27 May 16:15:32 16:19:39 29° 291° (WNW) 16:23:43 437.505
Gurwin Techsat 1B 27 May 16:30:58 16:34:56 20° 268° (W) 16:38:44 435.225
Cosmos 2499 27 May 16:42:12 16:50:16 61° 281° (W) 16:57:44 435.465 / 435.565
STARS 27 May 17:04:26 17:08:53 77° 284° (WNW) 17:13:16 437.465
AO-7 27 May 17:05:07 17:13:22 72° 255° (WSW) 17:21:43 29.400- 29.500
JAS-2 27 May 17:09:42 17:16:20 54° 260° (W) 17:22:12 435.910
HORYU 2 27 May 17:28:51 17:32:30 23° 266° (W) 17:36:03 437.375
RS-15 27 May 17:32:47 17:43:21 40° 41° (NE) 17:54:29 29.354- 29.394
MOZHAYETS 4 27 May 17:35:00 17:38:54 28° 95° (E) 17:42:53
YUBILEINY 27 May 17:35:56 17:38:51 12° 56° (NE) 17:42:28 435.215
KKS-1 27 May 17:38:55 17:42:22 21° 292° (WNW) 17:45:41 437.445
O/OREOS (USA 219) 27 May 17:49:31 17:52:36 17° 304° (NW) 17:55:33 437.305
BEESAT 3 27 May 17:59:14 18:02:27 23° 113° (ESE) 18:05:45 437.485
CUTE-I 27 May 18:06:36 18:10:40 24° 66° (ENE) 18:14:54 437.470
Cubesat XI-IV 27 May 18:26:34 18:31:21 36° 69° (ENE) 18:36:13 437.490
AIST 2 27 May 18:43:41 18:46:16 16° 111° (ESE) 18:48:59 435.215
BEESAT 2 27 May 18:47:56 18:51:59 66° 119° (ESE) 18:56:07 435.950
AO-7 27 May 19:04:54 19:07:50 11° 275° (W) 19:10:00 29.400- 29.500
MOZHAYETS 4 27 May 19:12:14 19:16:04 26° 290° (WNW) 19:19:50
CUBESAT XI-V 27 May 19:15:31 19:19:27 27° 94° (E) 19:23:28 437.345
STRAND 1 27 May 19:15:52 19:15:52 10° 87° (E) 19:16:16 437.568
YUBILEINY 27 May 19:29:07 19:37:47 69° 79° (E) 19:46:28 435.215
Cosmos 2491 27 May 19:31:58 19:39:43 38° 87° (E) 19:47:42 435.465 / 435.565
BEESAT 3 27 May 19:36:38 19:40:18 30° 309° (NW) 19:43:58 437.485
RS-15 27 May 19:45:08 19:56:42 68° 244° (WSW) 20:08:39 29.354- 29.394
CUTE-I 27 May 19:45:30 19:50:31 42° 262° (W) 19:55:34 437.470
GOMX 1 27 May 20:01:10 20:04:25 17° 64° (ENE) 20:07:57 467.674
BRITE-PL 27 May 20:01:11 20:05:21 26° 67° (ENE) 20:09:53 437.365/2234.400
Cubesat XI-IV 27 May 20:07:03 20:11:33 27° 266° (W) 20:15:59 437.490
Cosmos 2504 27 May 20:19:27 20:20:26 10° 58° (ENE) 20:22:01 435.465 / 435.565
PRISM 27 May 20:20:19 20:24:25 56° 100° (E) 20:28:30 437.425
AIST 2 27 May 20:20:24 20:24:30 46° 306° (NW) 20:28:39 435.215
BEESAT 2 27 May 20:28:15 20:30:33 14° 317° (NW) 20:32:44 435.950
CINEMA 3 27 May 20:33:10 20:34:09 11° 62° (ENE) 20:35:26 145.822/145.860
M-CUBED/EXP-1 PRIME 27 May 20:37:53 20:40:35 24° 101° (E) 20:43:22 437.505
HO-68 27 May 20:43:33 20:50:13 44° 67° (ENE) 20:56:58 435.675
AUBIESAT-1 27 May 20:45:15 20:48:02 25° 102° (ESE) 20:50:53 437.475
STRAND 1 27 May 20:50:39 20:55:51 85° 282° (WNW) 21:01:00 437.568
CUBESAT XI-V 27 May 20:52:48 20:56:53 29° 290° (WNW) 21:00:54 437.345
DOVE 4 27 May 20:56:36 21:01:16 37° 71° (ENE) 21:06:10 437.250
CANX-2 27 May 21:10:54 21:15:01 49° 74° (ENE) 21:19:09 2200.000
CUTE 1.7 + AOD 2 27 May 21:14:21 21:18:27 49° 74° (ENE) 21:22:34 437.475
CUBEBUG 2 27 May 21:17:50 21:20:26 15° 66° (ENE) 21:23:13 437.445
Oscar 11 27 May 21:26:28 21:29:19 18° 68° (ENE) 21:32:19 145.826/435.025
AIST 1 27 May 21:26:59 21:31:12 70° 96° (E) 21:35:28
YUBILEINY 27 May 21:27:20 21:33:56 24° 277° (W) 21:40:10 435.215
Cosmos 2491 27 May 21:28:07 21:36:30 45° 286° (WNW) 21:44:50 435.465 / 435.565
SEEDS 27 May 21:35:36 21:39:48 71° 76° (ENE) 21:44:00 437.485
GOMX 1 27 May 21:36:56 21:42:00 61° 261° (W) 21:47:22 467.674
BRITE-PL 27 May 21:38:55 21:43:39 38° 265° (W) 21:48:42 437.365/2234.400
COMPASS 1 27 May 21:47:33 21:51:44 78° 77° (ENE) 21:55:55 437.405
PRISM 27 May 21:57:40 21:59:27 12° 295° (WNW) 22:01:01 437.425
AAUSAT CUBESAT 2 27 May 21:58:59 22:03:10 89° 255° (WSW) 22:07:21 437.432
UWE-3 27 May 22:01:42 22:05:52 33° 71° (ENE) 22:10:05 435.000/436.395/437.385
RS-15 27 May 22:02:01 22:07:31 13° 261° (W) 22:11:51 29.354- 29.394
CINEMA 3 27 May 22:05:39 22:10:39 89° 70° (ENE) 22:15:44 145.822/145.860
Cosmos 2504 27 May 22:08:18 22:15:30 73° 81° (E) 22:22:43 435.465 / 435.565
FUNcube-1 27 May 22:09:44 22:13:43 31° 71° (ENE) 22:17:45 145.935
M-CUBED/EXP-1 PRIME 27 May 22:13:12 22:15:21 16° 296° (WNW) 22:17:25 437.505
AUBIESAT-1 27 May 22:20:40 22:22:43 15° 296° (WNW) 22:24:40 437.475
DELFI C3 27 May 22:20:57 22:24:50 50° 74° (ENE) 22:28:45 145.870
HO-68 27 May 22:31:36 22:38:04 34° 264° (W) 22:44:27 435.675
STRAND 1 27 May 22:33:20 22:34:20 10° 299° (WNW) 22:35:02 437.568
DOVE 4 27 May 22:34:50 22:39:07 26° 268° (W) 22:43:25 437.250
HUMSAT D 27 May 22:38:08 22:41:47 28° 71° (ENE) 22:45:30 437.325/437.525
CANX-2 27 May 22:49:14 22:51:18 13° 271° (W) 22:53:08 2200.000
ZACube-1 27 May 22:49:56 22:54:32 86° 76° (ENE) 22:59:08 437.345
UKube-1 27 May 22:50:38 22:54:38 39° 72° (ENE) 22:58:41 .
CUBEBUG 2 27 May 22:51:58 22:56:41 58° 260° (W) 23:01:24 437.445
CUTE 1.7 + AOD 2 27 May 22:52:35 22:54:42 13° 270° (W) 22:56:36 437.475
DX 1 27 May 23:00:24 23:04:38 54° 74° (ENE) 23:08:56 434.975-435.025
Oscar 11 27 May 23:01:11 23:05:15 38° 263° (W) 23:09:18 145.826/435.025
UNISAT 6 27 May 23:06:41 23:08:27 13° 89° (E) 23:10:28 437.425
CUBEBUG 1 27 May 23:14:57 23:17:58 19° 68° (ENE) 23:21:08 437.445
VELOX 1 27 May 23:18:02 23:22:09 41° 72° (ENE) 23:26:22 145.980
50 SAT 27 May 23:22:03 23:25:53 47° 74° (ENE) 23:29:46 437.505
ESTCUBE 1 27 May 23:24:44 23:28:31 28° 70° (ENE) 23:32:24 437.505/2401.250
QB50P2 27 May 23:37:40 23:39:25 13° 89° (E) 23:41:24 145.880/145.840
UWE-3 27 May 23:38:38 23:42:27 24° 267° (W) 23:46:09 435.000/436.395/437.385
FUNcube-1 27 May 23:46:15 23:50:03 24° 266° (W) 23:53:44 145.935
ANTELSAT 27 May 23:48:14 23:52:18 38° 97° (E) 23:56:19 437.575/2403.000
POPSAT HIP 1 27 May 23:48:56 23:51:37 17° 92° (E) 23:54:27 437.405
AISAT 27 May 23:49:38 23:54:05 85° 257° (WSW) 23:58:35 437.250
DUCHIFAT 1 27 May 23:50:07 23:52:48 17° 92° (E) 23:55:37 145.980
SPROUT 27 May 23:51:33 23:53:27 13° 65° (ENE) 23:55:32 437.525
ISS 27 May 23:53:19 23:56:30 62° 140° (SE) 23:59:44 145.825
GONETS M04 27 May 23:58:42 00:05:29 25° 66° (ENE) 00:12:31
DELFI C3 27 May 23:58:52 00:00:19 11° 271° (W) 00:01:30 145.870
Cosmos 2504 28 May 00:03:37 00:08:10 17° 277° (W) 00:12:20 435.465 / 435.565
BUGSAT 1 28 May 00:08:55 00:11:54 19° 92° (E) 00:14:59 437.445
TISAT 1 28 May 00:10:44 00:13:08 15° 66° (ENE) 00:15:43 437.305
HUMSAT D 28 May 00:13:58 00:17:31 24° 266° (W) 00:21:00 437.325/437.525
DANDE 28 May 00:14:27 00:21:15 33° 66° (ENE) 00:26:53 436.750
TIGRISAT 28 May 00:20:26 00:24:50 87° 103° (ESE) 00:29:06 435.000
UKube-1 28 May 00:28:02 00:30:58 17° 268° (W) 00:33:45 .
QB50P1 28 May 00:31:44 00:35:56 52° 99° (E) 00:40:06 145.935-145.965
POLYITAN 1 28 May 00:34:15 00:38:29 57° 100° (E) 00:42:39 437.675
DX 1 28 May 00:39:20 00:41:17 12° 270° (W) 00:43:01 434.975-435.025
CUSAT 1 28 May 00:39:39 00:46:44 62° 76° (ENE) 00:52:08 437.405
UNISAT 6 28 May 00:41:24 00:45:41 51° 286° (WNW) 00:49:50 437.425
CUBEBUG 1 28 May 00:50:03 00:54:06 37° 263° (W) 00:58:10 437.445
VELOX 1 28 May 00:55:57 00:58:57 17° 268° (W) 01:01:48 145.980
50 SAT 28 May 00:59:19 01:00:56 12° 270° (W) 01:02:20 437.505
ESTCUBE 1 28 May 01:01:39 01:05:23 25° 266° (W) 01:09:04 437.505/2401.250
NANOSAT C BR1 28 May 01:02:42 01:06:58 68° 285° (WNW) 01:11:10 145.865
QB50P2 28 May 01:11:31 01:15:42 51° 286° (WNW) 01:19:49 145.880/145.840
VERMONT LUNAR 28 May 01:15:58 01:17:46 14° 148° (SSE) 01:19:37 437.305
POPSAT HIP 1 28 May 01:23:41 01:27:42 38° 288° (WNW) 01:31:38 437.405
DUCHIFAT 1 28 May 01:24:50 01:28:49 38° 288° (WNW) 01:32:44 145.980
SPROUT 28 May 01:24:51 01:29:06 56° 260° (W) 01:33:23 437.525
ANTELSAT 28 May 01:25:47 01:28:50 18° 293° (WNW) 01:31:42 437.575/2403.000
PCSat 28 May 01:26:58 01:32:18 64° 115° (ESE) 01:37:41 145.827
ITUPSAT 1 28 May 01:28:38 01:31:52 19° 66° (ENE) 01:35:14 437.325
ISS 28 May 01:30:43 01:33:11 19° 336° (NNW) 01:35:39 145.825
BEESAT 28 May 01:35:16 01:38:52 22° 67° (ENE) 01:42:35 436.000
SWISSCUBE 28 May 01:43:25 01:47:28 29° 69° (ENE) 01:51:35 437.505
BUGSAT 1 28 May 01:43:36 01:47:30 34° 288° (WNW) 01:51:18 437.445
TISAT 1 28 May 01:44:30 01:48:35 45° 261° (W) 01:52:41 437.305
GONETS M04 28 May 01:54:29 02:03:12 68° 267° (W) 02:11:47
DANDE 28 May 01:57:33 02:04:44 43° 271° (W) 02:10:21 436.750
Oscar 19 28 May 02:07:49 02:11:23 19° 91° (E) 02:15:08 437.125/150
QB50P1 28 May 02:09:13 02:11:24 13° 294° (WNW) 02:13:23 145.935-145.965
POLYITAN 1 28 May 02:12:02 02:13:56 12° 295° (WNW) 02:15:39 437.675
O/OREOS (USA 219) 28 May 02:19:27 02:23:55 74° 68° (ENE) 02:28:23 437.305
BEESAT 3 28 May 02:19:27 02:21:21 13° 42° (NE) 02:23:22 437.485
CUSAT 1 28 May 02:23:50 02:28:28 19° 279° (W) 02:32:13 437.405
Cosmos 2499 28 May 02:34:36 02:41:11 41° 75° (ENE) 02:47:56 435.465 / 435.565
VERMONT LUNAR 28 May 02:51:24 02:54:35 61° 162° (SSE) 02:57:46 437.305
KKS-1 28 May 02:59:06 03:02:53 28° 69° (ENE) 03:06:45 437.445
ITUPSAT 1 28 May 03:04:55 03:09:28 44° 262° (W) 03:14:01 437.325
AIST 2 28 May 03:07:02 03:07:53 11° 39° (NE) 03:08:54 435.215
Gurwin Techsat 1B 28 May 03:07:41 03:11:30 20° 92° (E) 03:15:29 435.225
BEESAT 2 28 May 03:08:27 03:12:03 29° 50° (NE) 03:15:39 435.950
BEESAT 28 May 03:12:07 03:16:31 37° 263° (W) 03:20:54 436.000
PCSat 28 May 03:12:14 03:16:14 20° 314° (NW) 03:20:08 145.827
SWISSCUBE 28 May 03:21:14 03:25:18 27° 265° (W) 03:29:20 437.505
SO-50 28 May 03:23:45 03:28:05 40° 115° (ESE) 03:32:37 436.795
PHONESAT 2.4 28 May 03:32:39 03:35:56 40° 156° (SSE) 03:39:13 2401.200-2431.200
Oscar 19 28 May 03:46:06 03:51:03 47° 289° (WNW) 03:55:56 437.125/150
BEESAT 3 28 May 03:55:47 03:59:51 71° 241° (WSW) 04:03:50 437.485
GONETS M04 28 May 03:56:32 03:58:35 11° 284° (WNW) 03:59:49
STARS 28 May 03:59:53 04:04:20 81° 75° (ENE) 04:08:48 437.465
ITAMSAT 1 28 May 04:02:15 04:07:29 72° 102° (ESE) 04:12:42 435.822/435.867
JAS-2 28 May 04:21:12 04:24:25 17° 91° (E) 04:27:57 435.910
Cosmos 2499 28 May 04:28:05 04:34:10 31° 272° (W) 04:40:12 435.465 / 435.565
VERMONT LUNAR 28 May 04:28:36 04:31:48 66° 358° (N) 04:35:00 437.305
KKS-1 28 May 04:35:43 04:39:30 26° 265° (W) 04:43:13 437.445
MOZHAYETS 4 28 May 04:36:13 04:39:50 24° 69° (ENE) 04:43:32
AIST 2 28 May 04:43:00 04:47:15 81° 60° (ENE) 04:51:23 435.215
ISS 28 May 04:46:28 04:48:10 13° 16° (NNE) 04:49:55 145.825
Gurwin Techsat 1B 28 May 04:46:41 04:51:47 47° 288° (WNW) 04:56:50 435.225
BEESAT 2 28 May 04:46:41 04:50:03 24° 247° (WSW) 04:53:17 435.950
SO-50 28 May 05:04:50 05:08:48 25° 314° (NW) 05:12:48 436.795
PHONESAT 2.4 28 May 05:10:28 05:13:58 76° 352° (N) 05:17:27 2401.200-2431.200
